Showing default

JILIN-01 GAOFEN 2A, 44777

Orbit data source: Space-Track

JILIN-01 GAOFEN 2A, 44777 is a payload satellite owned by Changguang WJ (CN) in SSO that was launched on Wed, 13 Nov 2019 UTC via a KUAIZHOU-1A launch vehicle from the Jiuquan Satellite Launch Center, China (JSC). Payload-class satellites include a variety of spacecraft equipped with specific instruments for various scientific and technological missions. These include communications satellites like Starlink; space stations such as the ISS; scientific satellites like the Hubble; Earth observation satellites from companies like Planet Labs, Umbra, and HawkEye 360; GPS; miniature CubeSats for education and research; and military/defense satellites.

Loading next visibility...
Identifier
44777, 2019-075A
Orbit
SSO
Country
Flag of CNCN / PRC
Related business
Manufacturer
Changguang WJ
Mission
Operational Commercial Imaging
Bus & Motor
JL-1, Unknown motor
Mass
230 kg wet, 230 kg dry
Launch date (UTC)
2019-11-13 (6 years ago)
Launch vehicle
KUAIZHOU-1A
Launch site
Jiuquan Satellite Launch Center, China (JSC)
Object type
Payload
Rocket body
Debris
Shape & HBR
Box + 2 Pan, 0.8 m
Radar Cross Section
2.000 m², Large (>1 m²)

Expand to show TLE details & history
Last TLE update: 5 hours ago

TLE from 5 hours ago
0 JILIN-01 GAOFEN 2A
1 44777U 19075A   25260.96590523  .00011050  00000-0  38245-3 0  9997
2 44777  97.5247 334.8295 0007065 342.6389  17.4608 15.30027688323129
Epoch: 2025-09-17T23:10Z
TLE epoch observation values (Epoch: 2025-09-17T23:10:54.211Z)
Latitude
-0.00011°
Longitude
-10.03064°
Altitude
474.21 km
Speed
7.631 km/s
True Right ascension
22h 19m 19s
True Declination
0° 00' 00"
Sunlit
Object was in full shadow at epoch
Visualization orbit readout
Latitude
Unknown
Longitude
Unknown
Altitude
Unknown
Speed
Unknown
Apparent Right ascension
Unknown
Apparent Declination
Unknown
Sunlit
N/A
Visualization observer readout
Local Sidereal Time
21:23:20
Azimuth
Unknown
Elevation
Unknown
Doppler factor
Unknown
Orbital elements
Apogee altitude
477.527 km
Perigee altitude
467.847 km
Semi-major axis
6,850.824 km
Eccentricity
0.00071
Inclination
97.5247°
RAAN
334.8295°
Arg. of periapsis
342.6389°
True anomaly
17.48511°
Mean anomaly
17.4608°
Eccentric anomaly
17.47295°
Mean motion
3.82762 °/min
Orbital period
94.05 mins
BSTAR
0.00038245
Loading maneuver chart data...
Computing Atmospheric mass density...
Loading historical data...
Loading historical data...
Loading historical data...
Loading historical data...
Loading historical data...
Loading historical data...
Loading historical data...
Other satellites on launch #75 in the year 2019 (2019-11-13 UTC)

Documentation

Showing up to 5 results
|